Regional Weather Roundup
Issued by NWS

Home | Current Version | Previous Version | Text Only | Print | Product List | Glossary Off
Versions: 1 2 3 4 5 6 7 8 9 10 11 12 13 14 15 16 17 18 19 20 21 22 23 24 25 26 27 28 29 30 31 32 33 34 35 36 37 38 39 40 41 42 43 44 45 46 47 48 49 50

000
ASUS43 KTOP 290808
RWRKS

WEATHER ROUNDUP FOR KANSAS
NATIONAL WEATHER SERVICE GOODLAND KS
300 AM CDT FRI JUL 29 2016

NOTE:  "FAIR" INDICATES FEW OR NO CLOUDS BELOW 12,000 FEET WITH NO
SIGNIFICANT WEATHER AND/OR OBSTRUCTIONS TO VISIBILITY.

KSZ001>006-013>018-027>032-041>047-290900-
NORTHWEST KANSAS

CITY           SKY/WX    TMP DP  RH WIND       PRES   REMARKS
GOODLAND       CLOUDY    65  61  87 SW3       30.16F
HAYS           PTCLDY    66  59  77 N5        30.02F
HILL CITY      LGT RAIN  68  67  96 CALM      30.06F
RUSSELL        CLOUDY    66  64  93 N6        30.00F
$$

KSZ061>065-074>080-084>089-290900-
SOUTHWEST KANSAS

CITY           SKY/WX    TMP DP  RH WIND       PRES   REMARKS
DODGE CITY     MOCLDY    67  65  93 E3        30.05F
ELKHART          N/A     67  58  73 NE16        N/A
GARDEN CITY    CLOUDY    68  65  90 CALM      30.08R
GREAT BEND     CLOUDY    66  59  77 CALM      30.00F
LIBERAL        CLOUDY    66  55  68 N25G37    30.15R
PRATT          TSTM      66  63  90 N3        30.07R
$$

KSZ066>073-081>083-090>101-290900-
SOUTHEAST KANSAS

CITY           SKY/WX    TMP DP  RH WIND       PRES   REMARKS
CHANUTE        CLOUDY    70  67  90 NW3       29.96F
COFFEYVILLE    CLEAR     71  69  93 N3        29.95F
HUTCHINSON     CLOUDY    69  66  90 N3        29.98F
MEDICINE LODGE   N/A     69  66  90 SE6       29.96F
NEWTON         PTCLDY    68  67  96 NW8       30.00F
PARSONS        PTCLDY    70  67  90 CALM      29.95F
WICHITA INTL   CLOUDY    72  69  90 N10       29.97F
WICHITA JABRA  PTCLDY    69  68  96 CALM      29.96F
WICHITA MCCONL PTCLDY    70  67  89 NE8       29.96F
WINFIELD       PTCLDY    70  64  81 NE7       29.96F
$$

KSZ007>012-019>026-033>040-048>060-102>105-290900-
NORTHEAST KANSAS

CITY           SKY/WX    TMP DP  RH WIND       PRES   REMARKS
CONCORDIA      CLOUDY    67  65  93 CALM      30.00F
EMPORIA        PTCLDY    68  67  96 NW6       29.98F
LAWRENCE       CLEAR     67  66  97 W3        29.97F
MANHATTAN      MOCLDY    68  66  93 CALM      29.99F
MARYSVILLE     CLEAR     64  63  94 NE3       30.00F
OLATHE IND     CLOUDY    68  68 100 N6        29.98F
OLATHE EXE     MOCLDY    68  67  96 NW6       29.97F
SALINA         CLOUDY    71  66  84 NE5       29.99F
TOPEKA BILLARD CLEAR     67  65  93 NW5       29.97F
TOPEKA FORBES  CLEAR     68  66  93 NW3       29.97F
$$




USA.gov is the U.S. government's official web portal to all federal, state and local government web resources and services.